Regional Weather Roundup
Issued by NWS

Home | Current Version | Previous Version | Text Only | Print | Product List | Glossary On
Versions: 1 2 3 4 5 6 7 8 9 10 11 12 13 14 15 16 17 18 19 20 21 22 23 24 25 26 27 28 29 30 31 32 33 34 35 36 37 38 39 40 41 42 43 44 45 46 47 48 49 50
066
ASUS44 KLIX 280410
RWRLA
LOUISIANA WEATHER ROUNDUP
NATIONAL WEATHER SERVICE NEW ORLEANS LA
1100 PM CDT SUN JUL 27 2014

NOTE: "FAIR" INDICATES FEW OR NO CLOUDS BELOW 12,000 FEET WITH NO
      SIGNIFICANT WEATHER AND/OR OBSTRUCTIONS TO VISIBILITY.
      SKY/WX - SKY CONDITION AND SIGNIFICANT WEATHER.
      TMP - AIR TEMPERATURE.    DP   - DEWPOINT TEMPERATURE.
      RH  - RELATIVE HUMIDITY.  PRES - PRESSURE.
      HX  - HEAT INDEX.         WCI  - WIND CHILL INDEX.

*  THESE STATIONS ARE NOT NWS OR FAA STATIONS AND ARE NOT UNDER
   NWS QUALITY CONTROL.

LAZ040-048-061>063-065-066-069-280500-
SOUTHEAST LOUISIANA

CITY           SKY/WX    TMP DP  RH WIND       PRES   REMARKS
N.O. AUDUBON     N/A     83  76  81 MISG        N/A
N.O. INTL ARPT PTCLDY    82  76  81 SW12      30.07R
N.O. LAKEFRONT CLEAR     85  76  74 SW13      30.06S
N.O. DOWNTOWN* FAIR      84  73  70 SW6       30.07R
SLIDELL        PTCLDY    84  76  76 CALM      30.05R
BATON ROUGE    PTCLDY    82  76  81 SW10      30.06R
BOOTHVILLE     CLEAR     84  76  76 W10       30.08R
BELLE CHASSE   CLEAR     82  76  81 W6        30.06S
BOGALUSA*      FAIR      82  76  82 CALM      30.07R
GALLIANO*      NOT AVBL
NEW ROADS*     FAIR      81  77  87 S5        30.06R
GONZALES*      FAIR      81  80  96 CALM      30.06R
HAMMOND*       PTCLDY    82  73  74 SW5       30.08R
HOUMA*         CLEAR     81  74  79 CALM      30.07S
PORT FOURCHON* PTCLDY    84  75  74 SW9       30.10R

$$

LAZ041-044-053-054-280500-
SOUTHWEST LOUISIANA

CITY           SKY/WX    TMP DP  RH WIND       PRES   REMARKS
LAKE CHARLES   CLEAR     82  76  81 SW6       30.06R
LAFAYETTE      CLEAR     83  75  77 SW8       30.07R
PATTERSON      CLEAR     79  77  94 CALM      30.11S
SALT POINT       N/A     88  77  69 SW6       30.07R HX 100
NEW IBERIA     CLEAR     81  76  84 SW5       30.07R
CHENAULT AIRPK CLEAR     83  75  75 SW5       30.07R

$$

LAZ027-028-280500-
CENTRAL LOUISIANA

CITY           SKY/WX    TMP DP  RH WIND       PRES   REMARKS
FORT POLK      CLEAR     82  75  79 SW5       30.06R
ALEXANDRIA INT CLEAR     80  76  87 S6        30.03R
ALEXANDRIA     CLEAR     80  76  87 CALM      30.04R

$$

LAZ001-002-280500-
NORTHWEST LOUISIANA

CITY           SKY/WX    TMP DP  RH WIND       PRES   REMARKS
SHREVEPORT     MOCLDY    83  74  74 S5        30.02S
BARKSDALE AFB  PTCLDY    80  73  80 S7        30.02S
DTN SHREVEPORT PTCLDY    85  71  63 S5        30.01F

$$

LAZ014-016-280500-
NORTHEAST LOUISIANA

CITY           SKY/WX    TMP DP  RH WIND       PRES   REMARKS
MONROE         PTCLDY    82  75  79 S5        30.02S
TALLULAH       PTCLDY    80  76  87 SW3       30.02R

$$




USA.gov is the U.S. government's official web portal to all federal, state and local government web resources and services.